Voltar ao catálogo

ONEWEB-0637

AtivoComunicaçõesPO
NORAD 56078·PAYLOAD·🇬🇧 United Kingdom

Lançado Mar 26, 2023 de Satish Dhawan Space Centre

Loading…

Próximas Passagens (próximas 24 horas)

TLE

AtualizadoSource: CelesTrak SupGP

Época: Sep 15, 2026, 03:05 UTC

1 56078C 23043AJ  26258.12862685 -.00002339  00000+0 -62215-2 0  2583
2 56078  87.8980 241.2783 0002063  94.1231  14.4589 13.15548984    16

Acompanhe ONEWEB-0637 em tempo real com AllMySat

Download on the App Store